Flag for North Macedonia

Past Weather in Skopje, North Macedonia — Yesterday and Last 2 Weeks

Now
61 °F

Passing clouds.


Feels Like: 61 °F
Forecast: 74 / 51 °F
Wind: 1 mph from North

Location: Skopje-Petrovec
Current Time: Sep 28, 2020 at 8:28:56 pm
Latest Report: Sep 28, 2020 at 8:00 pm
Visibility: N/A
Pressure29.92 "Hg
Humidity: 88%
Dew Point: 57 °F
Location of SkopjeLocation

Past Weather in Skopje — Graph

°F

Skopje Temperature Yesterday

Maximum temperature yesterday: 75 °F (at 2:00 pm)
Minimum temperature yesterday: 46 °F (at 6:30 am)
Average temperature yesterday: 63 °F

High & Low Weather Summary for the Past Weeks

 TemperatureHumidityPressure
High88 °F (Sep 14, 2:30 pm)100% (Sep 25, 4:00 am)30.30 "Hg (Sep 25, 4:00 am)
Low46 °F (Sep 27, 6:30 am)25% (Sep 14, 4:30 pm)29.45 "Hg (Sep 26, 11:00 am)
Average68 °F64%29.99 "Hg
* Reported Sep 13 7:00 pm — Sep 28 7:00 pm, Skopje. Weather by CustomWeather, © 2020

Note: Actual official high and low records may vary slightly from our data, if they occured in-between our weather recording intervals... More about our weather records

Skopje Weather History for the Previous 24 Hours

Scroll right to see more
 ConditionsComfort  
Time TempWeatherWind HumidityBarometerVisibility
7:00 pm
Mon, Sep 28
61 °FPassing clouds.3 mph94%29.89 "HgN/A
6:30 pm63 °FPassing clouds.6 mph88%29.89 "HgN/A
6:00 pm64 °FLight rain. Scattered clouds.5 mph83%29.92 "HgN/A
5:30 pm68 °FThundershowers. Scattered clouds.6 mph73%29.89 "HgN/A
5:00 pm70 °FScattered clouds.3 mph73%29.89 "HgN/A
4:30 pm72 °FPartly sunny.13 mph65%29.89 "HgN/A
4:00 pm75 °FScattered clouds.17 mph50%29.86 "HgN/A
3:30 pm75 °FScattered clouds.21 mph50%29.86 "HgN/A
3:00 pm75 °FScattered clouds.21 mph50%29.86 "HgN/A
2:00 pm77 °FScattered clouds.24 mph51%29.86 "HgN/A
1:30 pm77 °FPassing clouds.17 mph51%29.86 "HgN/A
1:00 pm77 °FPassing clouds.18 mph51%29.89 "HgN/A
12:30 pm75 °FPassing clouds.15 mph54%29.89 "HgN/A
12:00 pm73 °FPassing clouds.14 mph57%29.89 "HgN/A
11:30 am75 °FPassing clouds.16 mph54%29.89 "HgN/A
11:00 am72 °FPassing clouds.20 mph65%29.89 "HgN/A
10:00 am68 °FPassing clouds.23 mph73%29.89 "HgN/A
9:30 am68 °FScattered clouds.20 mph73%29.89 "HgN/A
9:00 am66 °FScattered clouds.21 mph73%29.89 "HgN/A
8:00 am64 °FBroken clouds.17 mph78%29.89 "HgN/A
7:30 am63 °FScattered clouds.21 mph77%29.89 "HgN/A
7:00 am64 °FScattered clouds.20 mph73%29.86 "HgN/A
6:30 am64 °FScattered clouds.21 mph68%29.86 "HgN/A
6:00 am66 °FPassing clouds.22 mph64%29.86 "HgN/A
5:30 am64 °FPassing clouds.21 mph68%29.86 "HgN/A
5:00 am64 °FPassing clouds.8 mph68%29.92 "HgN/A
4:30 am66 °FPassing clouds.21 mph64%29.86 "HgN/A
4:00 am64 °FPassing clouds.18 mph68%29.89 "HgN/A
3:30 am66 °FPassing clouds.16 mph64%29.89 "HgN/A
2:30 am66 °FPassing clouds.14 mph64%29.92 "HgN/A
1:30 am66 °FPassing clouds.13 mph64%29.89 "HgN/A
1:00 am66 °FPassing clouds.15 mph64%29.92 "HgN/A
12:30 am66 °FPassing clouds.10 mph64%29.92 "HgN/A
12:00 am66 °FPassing clouds.13 mph60%29.92 "HgN/A
11:30 pm
Sun, Sep 27
66 °FPassing clouds.13 mph56%29.92 "HgN/A
11:00 pm68 °FPassing clouds.17 mph49%29.92 "HgN/A
10:30 pm68 °FPassing clouds.14 mph46%29.92 "HgN/A
10:00 pm68 °FPassing clouds.12 mph49%29.92 "HgN/A
9:30 pm68 °FPassing clouds.16 mph46%29.92 "HgN/A
9:00 pm68 °FPassing clouds.16 mph49%29.89 "HgN/A
8:00 pm68 °FPassing clouds.9 mph49%29.89 "HgN/A
Weather by CustomWeather, © 2020

See weather overview